Location: Niles Junction
(37.5763°N, 121.9714°W)
Time: 13:06:21
(UTC+00:00)

Cosmos 2058 Rocket - Pass Details

Date: 29 October 2020
Orbit: 610 x 640 km, 82.5° (Epoch: 01 December)

Event Time Altitude Azimuth Distance (km) Brightness Sun altitude
Rises 13:51:25 0° 341° (NNW) 2,940 6.2 -8.3°
Reaches altitude 10° 13:53:53 10° 330° (NNW) 2,023 5.3 -7.9°
Maximum altitude 13:57:46 29° 270° (W) 1,148 3.9 -7.1°
Drops below altitude 10° 14:01:36 10° 210° (SSW) 1,994 5.5 -6.4°
Sets 14:04:01 0° 199° (SSW) 2,891 6.4 -5.9°
